Location: N�rnberg
(49.4489°N, 11.0797°E)
Time: 21:54:19
(UTC+01:00)

ISS - Pass Details

Date: 06 January 2018
Orbit: 401 x 407 km, 51.6° (Epoch: 17 January)

Event Time Altitude Azimuth Distance (km) Brightness Sun altitude
Exits shadow 05:15:13 19° 69° (ENE) 1,050 -1.1 -27.5°
Drops below altitude 10° 05:16:16 10° 72° (ENE) 1,468 -0.2 -27.3°
Sets 05:18:22 0° 75° (ENE) 2,331 1.1 -27.0°
